Time,TemperatureF,DewpointF,PressureIn,WindDirection,WindDirectionDegrees,WindSpeedMPH,WindSpeedGustMPH,Humidity,HourlyPrecipIn,Conditions,Clouds,dailyrainin,SoftwareType,DateUTC
2015-03-29 00:12:00,65.0,49.0,29.96,South,186,3.0,-999.0,56,-99.99,,,-99.99,,2015-03-29 05:12:00,
2015-03-29 00:22:00,65.0,50.0,29.96,South,184,5.0,-999.0,58,-99.99,,,-99.99,,2015-03-29 05:22:00,
2015-03-29 00:42:00,64.0,50.0,29.96,SSW,200,3.0,-999.0,60,-99.99,,,-99.99,,2015-03-29 05:42:00,
2015-03-29 00:51:00,63.0,49.0,29.95,South,175,3.0,-999.0,61,-99.99,,,-99.99,,2015-03-29 05:51:00,
2015-03-29 01:02:00,63.0,49.0,29.95,South,175,3.0,-999.0,61,-99.99,,,-99.99,,2015-03-29 06:02:00,
2015-03-29 01:12:00,63.0,49.0,29.95,South,175,3.0,-999.0,61,-99.99,,,-99.99,,2015-03-29 06:12:00,
2015-03-29 01:22:00,63.0,50.0,29.95,SSE,167,3.0,-999.0,63,-99.99,,,-99.99,,2015-03-29 06:22:00,
2015-03-29 01:42:00,63.0,51.0,29.95,South,173,4.0,-999.0,64,-99.99,,,-99.99,,2015-03-29 06:42:00,
2015-03-29 01:51:00,63.0,51.0,29.95,South,175,2.0,-999.0,65,-99.99,,,-99.99,,2015-03-29 06:51:00,
2015-03-29 02:21:00,62.0,51.0,29.95,SSW,198,2.0,-999.0,67,-99.99,,,-99.99,,2015-03-29 07:21:00,
2015-03-29 02:41:00,61.0,50.0,29.95,SSW,200,2.0,-999.0,68,-99.99,,,-99.99,,2015-03-29 07:41:00,
2015-03-29 02:51:00,61.0,51.0,29.95,SW,222,1.0,-999.0,69,-99.99,,,-99.99,,2015-03-29 07:51:00,
2015-03-29 03:11:00,61.0,51.0,29.94,SSW,207,2.0,-999.0,69,-99.99,,,-99.99,,2015-03-29 08:11:00,
2015-03-29 03:21:00,61.0,50.0,29.94,SSW,194,2.0,-999.0,68,-99.99,,,-99.99,,2015-03-29 08:21:00,
2015-03-29 03:41:00,61.0,50.0,29.93,SSW,206,3.0,-999.0,68,-99.99,,,-99.99,,2015-03-29 08:41:00,
2015-03-29 03:51:00,61.0,50.0,29.93,SSW,202,3.0,-999.0,68,-99.99,,,-99.99,,2015-03-29 08:51:00,
2015-03-29 04:11:00,60.0,50.0,29.93,South,187,2.0,-999.0,69,-99.99,,,-99.99,,2015-03-29 09:11:00,
2015-03-29 04:22:00,60.0,50.0,29.92,SSW,198,2.0,-999.0,69,-99.99,,,-99.99,,2015-03-29 09:22:00,
2015-03-29 04:52:00,59.0,49.0,29.93,South,185,2.0,-999.0,69,-99.99,,,-99.99,,2015-03-29 09:52:00,
2015-03-29 05:12:00,59.0,48.0,29.92,South,180,1.0,-999.0,67,-99.99,,,-99.99,,2015-03-29 10:12:00,
2015-03-29 05:22:00,58.0,47.0,29.92,SSW,193,1.0,-999.0,66,-99.99,,,-99.99,,2015-03-29 10:22:00,
2015-03-29 05:42:00,57.0,47.0,29.92,SSW,192,1.0,-999.0,68,-99.99,,,-99.99,,2015-03-29 10:42:00,
2015-03-29 05:52:00,57.0,47.0,29.93,South,185,1.0,-999.0,68,-99.99,,,-99.99,,2015-03-29 10:52:00,
2015-03-29 06:12:00,57.0,47.0,29.93,SW,215,1.0,-999.0,68,-99.99,,,-99.99,,2015-03-29 11:12:00,
2015-03-29 06:22:00,56.0,46.0,29.94,SSW,207,1.0,-999.0,69,-99.99,,,-99.99,,2015-03-29 11:22:00,
2015-03-29 06:42:00,55.0,45.0,29.93,South,175,0.0,-999.0,70,-99.99,,,-99.99,,2015-03-29 11:42:00,
2015-03-29 06:52:00,55.0,46.0,29.95,SSW,205,1.0,-999.0,71,-99.99,,,-99.99,,2015-03-29 11:52:00,
2015-03-29 07:12:00,55.0,47.0,29.96,South,190,0.0,-999.0,73,-99.99,,,-99.99,,2015-03-29 12:12:00,
2015-03-29 07:22:00,55.0,47.0,29.96,South,181,1.0,-999.0,74,-99.99,,,-99.99,,2015-03-29 12:22:00,
2015-03-29 07:42:00,55.0,47.0,29.96,SSE,167,2.0,-999.0,75,-99.99,,,-99.99,,2015-03-29 12:42:00,
2015-03-29 07:51:00,55.0,48.0,29.97,SSE,159,2.0,-999.0,76,-99.99,,,-99.99,,2015-03-29 12:51:00,
2015-03-29 08:11:00,55.0,48.0,29.97,SSW,196,1.0,-999.0,77,-99.99,,,-99.99,,2015-03-29 13:11:00,
2015-03-29 08:21:00,56.0,50.0,29.98,South,175,3.0,-999.0,79,-99.99,,,-99.99,,2015-03-29 13:21:00,
2015-03-29 08:51:00,58.0,52.0,29.99,SSW,208,4.0,-999.0,80,-99.99,,,-99.99,,2015-03-29 13:51:00,
2015-03-29 09:11:00,59.0,53.0,29.99,South,174,4.0,-999.0,80,-99.99,,,-99.99,,2015-03-29 14:11:00,
2015-03-29 09:21:00,60.0,53.0,29.99,South,187,6.0,-999.0,79,-99.99,,,-99.99,,2015-03-29 14:21:00,
2015-03-29 09:42:00,62.0,55.0,29.99,SW,217,5.0,-999.0,78,-99.99,,,-99.99,,2015-03-29 14:42:00,
2015-03-29 09:52:00,63.0,55.0,30.00,South,186,5.0,-999.0,76,-99.99,,,-99.99,,2015-03-29 14:52:00,
2015-03-29 10:11:00,65.0,56.0,29.99,South,186,4.0,-999.0,74,-99.99,,,-99.99,,2015-03-29 15:11:00,
2015-03-29 10:22:00,66.0,56.0,30.00,South,189,6.0,-999.0,71,-99.99,,,-99.99,,2015-03-29 15:22:00,
2015-03-29 10:43:00,67.0,56.0,30.00,South,170,6.0,-999.0,69,-99.99,,,-99.99,,2015-03-29 15:43:00,
2015-03-29 10:53:00,69.0,58.0,30.00,SSW,207,3.0,-999.0,69,-99.99,,,-99.99,,2015-03-29 15:53:00,
2015-03-29 11:13:00,71.0,59.0,30.00,SSE,150,5.0,-999.0,67,-99.99,,,-99.99,,2015-03-29 16:13:00,
2015-03-29 11:23:00,72.0,59.0,30.00,ESE,121,3.0,-999.0,63,-99.99,,,-99.99,,2015-03-29 16:23:00,
2015-03-29 11:43:00,73.0,59.0,30.00,South,180,6.0,-999.0,61,-99.99,,,-99.99,,2015-03-29 16:43:00,
2015-03-29 11:53:00,75.0,59.0,29.99,SE,145,4.0,-999.0,58,-99.99,,,-99.99,,2015-03-29 16:53:00,
2015-03-29 12:22:00,76.0,59.0,30.00,SSW,198,5.0,-999.0,56,-99.99,,,-99.99,,2015-03-29 17:22:00,
2015-03-29 12:42:00,77.0,60.0,30.00,South,190,5.0,-999.0,55,-99.99,,,-99.99,,2015-03-29 17:42:00,
2015-03-29 12:53:00,78.0,59.0,30.00,SSW,201,5.0,-999.0,52,-99.99,,,-99.99,,2015-03-29 17:53:00,
2015-03-29 13:12:00,79.0,59.0,29.99,SSW,192,4.0,-999.0,51,-99.99,,,-99.99,,2015-03-29 18:12:00,
2015-03-29 13:23:00,79.0,59.0,29.99,SSE,152,5.0,-999.0,50,-99.99,,,-99.99,,2015-03-29 18:23:00,
2015-03-29 13:42:00,80.0,59.0,29.98,South,178,4.0,-999.0,48,-99.99,,,-99.99,,2015-03-29 18:42:00,
2015-03-29 13:52:00,81.0,59.0,29.98,South,187,4.0,-999.0,47,-99.99,,,-99.99,,2015-03-29 18:52:00,
2015-03-29 14:11:00,82.0,60.0,29.98,SSW,196,3.0,-999.0,47,-99.99,,,-99.99,,2015-03-29 19:11:00,
2015-03-29 14:21:00,83.0,59.0,29.97,SSE,155,3.0,-999.0,45,-99.99,,,-99.99,,2015-03-29 19:21:00,
2015-03-29 14:42:00,83.0,60.0,29.96,SSE,156,4.0,-999.0,46,-99.99,,,-99.99,,2015-03-29 19:42:00,
2015-03-29 14:51:00,83.0,59.0,29.96,SE,127,4.0,-999.0,44,-99.99,,,-99.99,,2015-03-29 19:51:00,
2015-03-29 15:12:00,83.0,59.0,29.95,SSE,157,4.0,-999.0,44,-99.99,,,-99.99,,2015-03-29 20:12:00,
2015-03-29 15:21:00,83.0,56.0,29.94,SSW,202,6.0,-999.0,40,-99.99,,,-99.99,,2015-03-29 20:21:00,
2015-03-29 15:41:00,84.0,57.0,29.93,South,188,3.0,-999.0,40,-99.99,,,-99.99,,2015-03-29 20:41:00,
2015-03-29 15:52:00,84.0,58.0,29.92,SSE,159,5.0,-999.0,41,-99.99,,,-99.99,,2015-03-29 20:52:00,
2015-03-29 16:12:00,84.0,58.0,29.92,SSE,167,4.0,-999.0,41,-99.99,,,-99.99,,2015-03-29 21:12:00,
2015-03-29 16:21:00,83.0,56.0,29.91,SSE,157,5.0,-999.0,40,-99.99,,,-99.99,,2015-03-29 21:21:00,
2015-03-29 16:43:00,83.0,58.0,29.91,South,173,4.0,-999.0,42,-99.99,,,-99.99,,2015-03-29 21:43:00,
2015-03-29 16:53:00,83.0,58.0,29.91,South,179,4.0,-999.0,42,-99.99,,,-99.99,,2015-03-29 21:53:00,
2015-03-29 17:12:00,83.0,58.0,29.91,South,178,4.0,-999.0,42,-99.99,,,-99.99,,2015-03-29 22:12:00,
2015-03-29 17:23:00,83.0,58.0,29.91,South,175,4.0,-999.0,43,-99.99,,,-99.99,,2015-03-29 22:23:00,
2015-03-29 17:42:00,82.0,57.0,29.91,SSE,167,4.0,-999.0,43,-99.99,,,-99.99,,2015-03-29 22:42:00,
2015-03-29 17:53:00,82.0,57.0,29.91,SSW,200,4.0,-999.0,43,-99.99,,,-99.99,,2015-03-29 22:53:00,